QPF
0.02 0.03 0.04 0.05 0.05 0.05 0.05 0.06 0.07 0.07 0.07 0.06 0.06 0.06 0.04 0.04 0.04 0.03 0.03 0.02 0.01 0.01 0.01 0.02 0.02 0.03 0.03 0.04 0.06 0.10 0.14 0.13 0.11 0.10 0.09 0.09 0.09 0.10
0.04 0.04 0.05 0.05 0.07 0.07 0.06 0.05 0.06 0.07 0.06 0.07 0.08 0.05 0.03 0.03 0.04 0.03 0.02 0.03 0.03 0.03 0.03 0.04 0.05 0.05 0.06 0.06 0.05 0.04 0.04 0.06 0.08 0.08 0.08 0.07 0.06 0.06
0.05 0.06 0.07 0.10 0.09 0.06 0.05 0.05 0.07 0.09 0.09 0.09 0.06 0.04 0.02 0.03 0.03 0.03 0.03 0.03 0.03 0.03 0.03 0.03 0.04 0.04 0.04 0.03 0.02 0.02 0.02 0.03 0.03 0.04 0.05 0.04 0.04 0.05
0.11 0.07 0.07 0.09 0.07 0.06 0.06 0.07 0.08 0.08 0.06 0.06 0.05 0.03 0.03 0.02 0.02 0.02 0.02 0.02 0.02 0.03 0.03 0.03 0.04 0.04 0.04 0.03 0.03 0.02 0.02 0.02 0.01 0.02 0.02 0.02 0.02 0.02
0.06 0.04 0.04 0.04 0.04 0.04 0.04 0.05 0.05 0.04 0.04 0.05 0.04 0.03 0.03 0.02 0.02 0.01 0.01 0.02 0.01 0.02 0.02 0.03 0.04 0.04 0.03 0.03 0.02 0.01 0.01 0.01 0.01 0.01 0.01 0.01 0.01 0.02
0.02 0.01 0.01 0.02 0.03 0.03 0.03 0.03 0.04 0.05 0.05 0.05 0.05 0.04 0.04 0.03 0.02 0.01 0.02 0.02 0.02 0.02 0.02 0.02 0.03 0.03 0.02 0.02 0.01 0.01 0.01 0.01 0.01 0.01 0.01 0.01 0.02 0.02
0.01 0.01 0.01 0.02 0.02 0.02 0.02 0.04 0.05 0.05 0.05 0.04 0.04 0.04 0.04 0.04 0.02 0.02 0.03 0.03 0.02 0.03 0.03 0.03 0.02 0.02 0.02 0.02 0.02 0.02 0.02 0.02 0.01 0.01 0.01 0.01 0.02 0.03
0.02 0.02 0.03 0.02 0.02 0.02 0.03 0.03 0.03 0.04 0.05 0.05 0.05 0.04 0.05 0.05 0.04 0.03 0.04 0.05 0.06 0.05 0.05 0.04 0.03 0.03 0.03 0.03 0.03 0.02 0.02 0.02 0.01 0.01 0.02 0.02 0.03 0.04
0.02 0.02 0.02 0.03 0.03 0.02 0.02 0.02 0.01 0.02 0.02 0.02 0.04 0.04 0.04 0.04 0.04 0.03 0.03 0.04 0.04 0.05 0.06 0.08 0.07 0.08 0.09 0.07 0.06 0.04 0.02 0.02 0.02 0.02 0.02 0.02 0.03 0.05
0.01 0.01 0.01 0.01 0.01 0.01 0.01 0.01 0.00 0.01 0.01 0.01 0.01 0.02 0.03 0.04 0.04 0.03 0.03 0.03 0.03 0.03 0.03 0.05 0.06 0.08 0.10 0.09 0.09 0.06 0.04 0.03 0.02 0.02 0.02 0.03 0.03 0.04
0.00 0.00 0.01 0.00 0.01 0.01 0.01 0.01 0.00 0.01 0.01 0.01 0.01 0.01 0.01 0.01 0.01 0.02 0.02 0.03 0.04 0.04 0.03 0.03 0.04 0.05 0.05 0.06 0.06 0.04 0.03 0.02 0.02 0.02 0.02 0.02 0.02 0.03
0.01 0.00 0.01 0.00 0.00 0.01 0.01 0.01 0.01 0.01 0.01 0.01 0.01 0.01 0.01 0.01 0.01 0.01 0.02 0.03 0.05 0.05 0.04 0.04 0.04 0.04 0.05 0.05 0.04 0.03 0.03 0.03 0.02 0.02 0.01 0.01 0.02 0.02
0.01 0.00 0.01 0.01 0.00 0.01 0.01 0.01 0.01 0.01 0.01 0.01 0.01 0.02 0.01 0.01 0.01 0.01 0.02 0.02 0.03 0.03 0.03 0.04 0.04 0.04 0.06 0.06 0.06 0.06 0.05 0.04 0.03 0.02 0.01 0.01 0.01 0.01
0.01 0.01 0.01 0.01 0.01 0.01 0.01 0.01 0.01 0.01 0.02 0.03 0.03 0.03 0.03 0.03 0.03 0.03 0.03 0.03 0.03 0.02 0.03 0.04 0.05 0.06 0.06 0.06 0.06 0.06 0.06 0.05 0.04 0.03 0.03 0.03 0.02 0.02
0.02 0.02 0.02 0.02 0.01 0.01 0.01 0.01 0.01 0.01 0.02 0.02 0.03 0.03 0.03 0.03 0.03 0.03 0.02 0.02 0.02 0.01 0.01 0.02 0.03 0.03 0.05 0.05 0.05 0.05 0.05 0.05 0.05 0.06 0.05 0.03 0.02 0.02
0.02 0.02 0.02 0.02 0.01 0.01 0.01 0.01 0.01 0.01 0.01 0.01 0.01 0.01 0.01 0.01 0.01 0.01 0.01 0.01 0.01 0.01 0.01 0.01 0.02 0.02 0.03 0.04 0.04 0.04 0.04 0.05 0.05 0.05 0.04 0.03 0.01 0.01
0.02 0.02 0.02 0.02 0.02 0.01 0.01 0.01 0.01 0.01 0.01 0.01 0.01 0.01 0.01 0.01 0.01 0.01 0.01 0.01 0.01 0.01 0.01 0.01 0.02 0.02 0.02 0.02 0.03 0.03 0.04 0.05 0.05 0.05 0.04 0.03 0.02 0.01
0.02 0.02 0.02 0.02 0.03 0.03 0.03 0.03 0.02 0.01 0.01 0.01 0.01 0.01 0.00 0.01 0.01 0.01 0.01 0.01 0.01 0.01 0.01 0.01 0.02 0.02 0.02 0.02 0.02 0.02 0.03 0.03 0.03 0.03 0.03 0.03 0.02 0.01
0.03 0.03 0.03 0.02 0.02 0.03 0.04 0.04 0.03 0.01 0.00 0.00 0.00 0.00 0.00 0.01 0.01 0.01 0.01 0.01 0.01 0.02 0.02 0.02 0.02 0.04 0.04 0.04 0.03 0.02 0.03 0.03 0.02 0.02 0.02 0.02 0.02 0.02
0.02 0.02 0.02 0.03 0.03 0.03 0.03 0.02 0.02 0.01 0.01 0.00 0.00 0.00 0.01 0.01 0.01 0.01 0.01 0.01 0.01 0.01 0.02 0.03 0.04 0.05 0.05 0.05 0.04 0.03 0.03 0.03 0.03 0.03 0.03 0.03 0.03 0.02
0.02 0.02 0.02 0.02 0.02 0.02 0.02 0.02 0.02 0.03 0.02 0.02 0.01 0.01 0.01 0.01 0.01 0.01 0.01 0.01 0.01 0.02 0.02 0.02 0.03 0.03 0.03 0.04 0.03 0.02 0.02 0.02 0.02 0.02 0.03 0.03 0.03 0.03
0.02 0.01 0.01 0.00 0.00 0.00 0.01 0.01 0.01 0.01 0.01 0.01 0.01 0.01 0.01 0.01 0.01 0.01 0.01 0.01 0.01 0.02 0.02 0.02 0.02 0.02 0.03 0.04 0.03 0.02 0.02 0.02 0.02 0.02 0.02 0.02 0.03 0.03
0.01 0.00 0.00 0.00 0.00 0.00 0.01 0.01 0.01 0.01 0.01 0.01 0.01 0.01 0.01 0.01 0.01 0.01 0.01 0.01 0.01 0.01 0.01 0.01 0.01 0.02 0.02 0.02 0.02 0.02 0.03 0.03 0.03 0.03 0.03 0.02 0.01 0.02
MSLP
1017.53 1017.74 1017.96 1018.17 1018.35 1018.45 1018.46 1018.35 1018.12 1017.78 1017.35 1016.87 1016.38 1015.90 1015.49 1015.17 1014.95 1014.85 1014.85 1014.94 1015.08 1015.26 1015.43 1015.56 1015.63 1015.63 1015.56 1015.42 1015.24 1015.05 1014.85 1014.67 1014.52 1014.40 1014.31 1014.23 1014.15 1014.05
1017.03 1017.19 1017.38 1017.59 1017.78 1017.92 1018.00 1017.98 1017.84 1017.61 1017.27 1016.86 1016.41 1015.96 1015.53 1015.17 1014.89 1014.70 1014.62 1014.62 1014.69 1014.80 1014.92 1015.02 1015.08 1015.09 1015.04 1014.95 1014.81 1014.66 1014.50 1014.35 1014.21 1014.08 1013.95 1013.82 1013.67 1013.50
1016.49 1016.62 1016.78 1016.98 1017.17 1017.35 1017.48 1017.54 1017.50 1017.37 1017.13 1016.82 1016.43 1016.02 1015.61 1015.23 1014.91 1014.66 1014.49 1014.41 1014.39 1014.42 1014.47 1014.53 1014.57 1014.58 1014.56 1014.50 1014.42 1014.32 1014.21 1014.10 1013.98 1013.85 1013.71 1013.53 1013.32 1013.09
1015.96 1016.08 1016.22 1016.40 1016.59 1016.79 1016.96 1017.07 1017.12 1017.07 1016.93 1016.70 1016.40 1016.05 1015.67 1015.30 1014.96 1014.67 1014.44 1014.28 1014.18 1014.12 1014.10 1014.10 1014.11 1014.11 1014.10 1014.08 1014.04 1014.00 1013.95 1013.88 1013.79 1013.67 1013.51 1013.31 1013.06 1012.77
1015.48 1015.58 1015.72 1015.88 1016.07 1016.27 1016.45 1016.60 1016.69 1016.71 1016.65 1016.51 1016.29 1016.00 1015.69 1015.35 1015.02 1014.72 1014.45 1014.23 1014.05 1013.92 1013.83 1013.77 1013.72 1013.70 1013.69 1013.68 1013.68 1013.69 1013.68 1013.65 1013.59 1013.49 1013.33 1013.11 1012.83 1012.52
1015.01 1015.13 1015.25 1015.41 1015.58 1015.77 1015.95 1016.11 1016.22 1016.29 1016.28 1016.21 1016.07 1015.87 1015.62 1015.34 1015.05 1014.76 1014.49 1014.23 1014.01 1013.81 1013.65 1013.52 1013.43 1013.36 1013.33 1013.33 1013.34 1013.37 1013.39 1013.39 1013.35 1013.26 1013.11 1012.88 1012.61 1012.29
1014.52 1014.65 1014.78 1014.93 1015.09 1015.26 1015.42 1015.57 1015.70 1015.78 1015.82 1015.80 1015.73 1015.62 1015.45 1015.26 1015.03 1014.78 1014.53 1014.27 1014.02 1013.78 1013.57 1013.38 1013.23 1013.12 1013.05 1013.03 1013.03 1013.05 1013.08 1013.09 1013.06 1012.97 1012.83 1012.61 1012.34 1012.03
1013.94 1014.10 1014.24 1014.39 1014.54 1014.69 1014.84 1014.97 1015.09 1015.18 1015.25 1015.29 1015.29 1015.26 1015.18 1015.08 1014.94 1014.76 1014.55 1014.32 1014.07 1013.81 1013.56 1013.33 1013.13 1012.97 1012.85 1012.79 1012.76 1012.76 1012.77 1012.76 1012.72 1012.63 1012.48 1012.27 1012.01 1011.73
1013.22 1013.41 1013.58 1013.75 1013.90 1014.04 1014.17 1014.30 1014.41 1014.51 1014.60 1014.68 1014.75 1014.80 1014.83 1014.82 1014.77 1014.68 1014.54 1014.35 1014.12 1013.86 1013.60 1013.34 1013.09 1012.89 1012.73 1012.61 1012.54 1012.50 1012.46 1012.42 1012.35 1012.23 1012.07 1011.86 1011.61 1011.34
1012.32 1012.56 1012.78 1012.98 1013.15 1013.30 1013.44 1013.56 1013.67 1013.78 1013.90 1014.03 1014.16 1014.28 1014.39 1014.48 1014.53 1014.52 1014.45 1014.32 1014.13 1013.90 1013.63 1013.36 1013.10 1012.86 1012.66 1012.49 1012.37 1012.27 1012.18 1012.08 1011.96 1011.81 1011.61 1011.39 1011.14 1010.89
1011.29 1011.59 1011.87 1012.12 1012.33 1012.51 1012.66 1012.80 1012.92 1013.05 1013.19 1013.36 1013.54 1013.73 1013.91 1014.08 1014.21 1014.28 1014.28 1014.21 1014.07 1013.87 1013.63 1013.36 1013.09 1012.84 1012.61 1012.41 1012.23 1012.08 1011.93 1011.77 1011.59 1011.37 1011.14 1010.88 1010.62 1010.37
1010.20 1010.58 1010.93 1011.24 1011.51 1011.73 1011.91 1012.06 1012.21 1012.35 1012.52 1012.71 1012.93 1013.16 1013.40 1013.63 1013.82 1013.95 1014.01 1014.00 1013.91 1013.75 1013.54 1013.30 1013.04 1012.79 1012.55 1012.33 1012.12 1011.92 1011.71 1011.48 1011.23 1010.96 1010.67 1010.37 1010.09 1009.83
1009.16 1009.62 1010.06 1010.44 1010.76 1011.02 1011.23 1011.41 1011.57 1011.73 1011.90 1012.11 1012.34 1012.60 1012.87 1013.13 1013.35 1013.53 1013.63 1013.67 1013.62 1013.51 1013.34 1013.14 1012.92 1012.69 1012.47 1012.24 1012.01 1011.78 1011.52 1011.24 1010.93 1010.60 1010.26 1009.91 1009.60 1009.32
1008.26 1008.81 1009.32 1009.76 1010.13 1010.43 1010.67 1010.86 1011.02 1011.18 1011.35 1011.55 1011.78 1012.04 1012.31 1012.58 1012.82 1013.02 1013.15 1013.22 1013.21 1013.15 1013.04 1012.89 1012.72 1012.53 1012.34 1012.13 1011.91 1011.66 1011.37 1011.05 1010.70 1010.32 1009.93 1009.55 1009.20 1008.91
1007.56 1008.19 1008.75 1009.24 1009.65 1009.97 1010.21 1010.40 1010.55 1010.70 1010.85 1011.03 1011.24 1011.48 1011.73 1011.98 1012.22 1012.42 1012.57 1012.67 1012.71 1012.70 1012.64 1012.55 1012.44 1012.32 1012.17 1012.00 1011.80 1011.56 1011.27 1010.93 1010.55 1010.13 1009.71 1009.30 1008.94 1008.63
1007.06 1007.74 1008.34 1008.86 1009.27 1009.59 1009.82 1009.99 1010.12 1010.24 1010.36 1010.50 1010.68 1010.88 1011.11 1011.34 1011.57 1011.77 1011.93 1012.06 1012.14 1012.18 1012.19 1012.17 1012.13 1012.07 1011.99 1011.87 1011.71 1011.48 1011.20 1010.86 1010.47 1010.05 1009.61 1009.19 1008.81 1008.50
1006.69 1007.40 1008.01 1008.53 1008.93 1009.23 1009.44 1009.58 1009.67 1009.75 1009.83 1009.94 1010.07 1010.24 1010.44 1010.66 1010.87 1011.08 1011.26 1011.42 1011.55 1011.65 1011.73 1011.78 1011.82 1011.83 1011.81 1011.74 1011.62 1011.43 1011.17 1010.85 1010.47 1010.04 1009.61 1009.19 1008.81 1008.50
1006.36 1007.06 1007.66 1008.15 1008.53 1008.79 1008.97 1009.07 1009.13 1009.18 1009.23 1009.30 1009.41 1009.56 1009.74 1009.95 1010.16 1010.39 1010.60 1010.80 1010.98 1011.15 1011.30 1011.42 1011.53 1011.61 1011.64 1011.62 1011.54 1011.38 1011.15 1010.84 1010.47 1010.07 1009.65 1009.24 1008.87 1008.56
1005.95 1006.61 1007.18 1007.63 1007.97 1008.21 1008.35 1008.43 1008.47 1008.50 1008.53 1008.59 1008.69 1008.83 1009.01 1009.22 1009.47 1009.72 1009.98 1010.23 1010.48 1010.71 1010.93 1011.12 1011.28 1011.41 1011.49 1011.50 1011.44 1011.30 1011.09 1010.80 1010.45 1010.06 1009.66 1009.27 1008.91 1008.62
1005.37 1005.97 1006.49 1006.90 1007.21 1007.43 1007.56 1007.64 1007.67 1007.70 1007.74 1007.81 1007.92 1008.07 1008.28 1008.52 1008.80 1009.10 1009.41 1009.73 1010.04 1010.34 1010.62 1010.87 1011.08 1011.24 1011.34 1011.36 1011.31 1011.17 1010.96 1010.67 1010.33 1009.96 1009.57 1009.20 1008.87 1008.58
1004.57 1005.11 1005.58 1005.96 1006.25 1006.47 1006.61 1006.70 1006.77 1006.82 1006.89 1006.99 1007.13 1007.32 1007.56 1007.85 1008.18 1008.54 1008.92 1009.30 1009.68 1010.05 1010.38 1010.67 1010.91 1011.08 1011.18 1011.19 1011.12 1010.97 1010.73 1010.44 1010.10 1009.73 1009.36 1009.00 1008.69 1008.42
1003.56 1004.04 1004.47 1004.84 1005.14 1005.37 1005.55 1005.69 1005.80 1005.91 1006.02 1006.17 1006.36 1006.59 1006.89 1007.23 1007.62 1008.04 1008.49 1008.94 1009.38 1009.80 1010.17 1010.49 1010.74 1010.91 1010.99 1010.98 1010.87 1010.68 1010.42 1010.10 1009.74 1009.37 1009.01 1008.67 1008.38 1008.13
1002.40 1002.84 1003.25 1003.62 1003.95 1004.23 1004.46 1004.67 1004.85 1005.02 1005.20 1005.40 1005.65 1005.94 1006.28 1006.67 1007.12 1007.60 1008.11 1008.62 1009.12 1009.58 1009.99 1010.33 1010.58 1010.73 1010.78 1010.72 1010.57 1010.33 1010.03 1009.68 1009.31 1008.94 1008.59 1008.27 1008.00 1007.78
Thickness
5744 5742 5740 5740 5738 5736 5733 5728 5721 5714 5711 5711 5708 5707 5705 5702 5698 5696 5694 5691 5689 5687 5686 5684 5683 5681 5680 5678 5677 5676 5675 5674 5673 5672 5671 5671 5670 5669
5739 5737 5735 5737 5735 5733 5731 5728 5724 5718 5711 5710 5706 5704 5700 5698 5693 5692 5689 5685 5683 5681 5679 5678 5676 5674 5672 5671 5669 5667 5666 5665 5664 5663 5662 5661 5660 5659
5736 5734 5732 5730 5730 5729 5727 5724 5721 5717 5709 5706 5704 5700 5695 5692 5690 5687 5685 5682 5679 5676 5674 5671 5669 5667 5664 5662 5661 5659 5657 5656 5655 5654 5653 5653 5652 5651
5731 5729 5728 5727 5725 5724 5722 5720 5717 5713 5708 5700 5697 5694 5691 5688 5686 5683 5682 5679 5676 5671 5668 5665 5663 5660 5657 5655 5653 5651 5649 5647 5646 5645 5644 5644 5643 5642
5728 5725 5724 5722 5720 5719 5717 5715 5713 5710 5706 5700 5695 5691 5688 5685 5681 5678 5676 5673 5671 5667 5662 5659 5656 5653 5650 5648 5645 5643 5640 5639 5637 5636 5634 5634 5633 5632
5724 5722 5720 5718 5715 5714 5712 5709 5707 5704 5701 5697 5692 5688 5683 5679 5676 5673 5670 5668 5665 5663 5658 5654 5650 5647 5644 5641 5638 5635 5632 5630 5628 5626 5625 5624 5623 5622
5719 5717 5715 5711 5708 5707 5707 5704 5701 5699 5697 5693 5688 5684 5679 5674 5671 5669 5665 5663 5659 5657 5654 5651 5648 5644 5640 5635 5631 5628 5625 5622 5619 5617 5615 5614 5612 5611
5714 5712 5710 5706 5702 5698 5696 5693 5692 5691 5690 5687 5683 5678 5673 5670 5667 5664 5661 5658 5654 5651 5648 5645 5644 5640 5636 5631 5625 5621 5617 5614 5611 5608 5605 5604 5602 5601
5709 5707 5706 5703 5699 5696 5692 5688 5685 5682 5680 5679 5677 5673 5668 5665 5661 5658 5654 5651 5647 5646 5642 5638 5637 5633 5629 5624 5617 5613 5609 5605 5602 5599 5597 5594 5593 5591
5703 5701 5698 5695 5693 5690 5688 5685 5681 5677 5674 5672 5669 5666 5663 5659 5656 5653 5649 5645 5642 5639 5636 5632 5631 5626 5622 5617 5610 5605 5601 5597 5593 5590 5588 5586 5584 5582
5697 5694 5692 5688 5682 5681 5680 5677 5674 5671 5666 5662 5659 5656 5653 5650 5648 5647 5644 5642 5638 5635 5631 5627 5624 5620 5616 5611 5605 5599 5594 5590 5586 5583 5580 5578 5576 5574
5692 5688 5683 5680 5676 5674 5674 5671 5667 5665 5662 5659 5653 5650 5647 5644 5640 5639 5638 5636 5634 5629 5624 5620 5618 5614 5609 5605 5600 5594 5588 5583 5579 5576 5573 5571 5568 5567
5689 5684 5679 5672 5669 5666 5666 5664 5660 5658 5657 5653 5650 5647 5643 5639 5636 5632 5629 5628 5625 5622 5618 5613 5610 5607 5603 5599 5594 5590 5585 5580 5575 5570 5567 5564 5561 5559
5682 5679 5672 5665 5662 5659 5657 5654 5652 5650 5652 5649 5645 5641 5637 5633 5629 5625 5620 5617 5613 5610 5606 5603 5601 5597 5595 5592 5588 5584 5579 5574 5570 5566 5562 5558 5554 5551
5673 5667 5662 5658 5655 5653 5648 5646 5646 5646 5645 5641 5637 5634 5631 5626 5622 5617 5613 5609 5605 5601 5598 5593 5591 5589 5586 5583 5580 5576 5571 5567 5564 5560 5557 5554 5551 5547
5664 5658 5654 5651 5649 5646 5643 5642 5640 5638 5636 5633 5630 5627 5624 5620 5615 5611 5608 5604 5600 5596 5590 5586 5582 5579 5578 5574 5572 5568 5565 5561 5558 5554 5551 5549 5546 5543
5658 5656 5653 5649 5646 5643 5639 5635 5633 5631 5627 5625 5622 5618 5615 5611 5607 5603 5599 5596 5592 5589 5585 5579 5575 5572 5568 5565 5563 5561 5558 5556 5552 5549 5545 5543 5541 5538
5650 5650 5646 5644 5640 5636 5632 5628 5625 5623 5620 5617 5614 5610 5607 5603 5599 5595 5591 5587 5584 5580 5576 5572 5569 5566 5563 5559 5554 5553 5551 5549 5546 5542 5540 5538 5536 5533
5643 5642 5638 5634 5631 5629 5626 5622 5618 5615 5612 5610 5606 5602 5599 5595 5591 5587 5582 5579 5575 5571 5568 5564 5561 5558 5556 5554 5551 5544 5544 5541 5539 5537 5535 5533 5530 5528
5636 5634 5631 5627 5623 5620 5617 5614 5610 5607 5604 5600 5598 5595 5591 5587 5583 5579 5575 5569 5567 5564 5560 5557 5553 5550 5547 5545 5544 5540 5534 5534 5532 5529 5528 5526 5525 5521
5628 5625 5623 5619 5616 5613 5609 5606 5603 5599 5595 5592 5589 5585 5582 5578 5575 5571 5568 5560 5558 5556 5553 5549 5545 5539 5538 5537 5536 5534 5531 5526 5523 5520 5519 5517 5517 5516
5622 5618 5615 5612 5609 5605 5601 5599 5596 5592 5588 5585 5582 5578 5575 5571 5568 5563 5560 5557 5554 5550 5546 5543 5539 5536 5534 5532 5530 5529 5526 5522 5517 5513 5509 5508 5507 5508
5615 5611 5608 5606 5603 5598 5595 5592 5589 5586 5582 5578 5575 5571 5568 5565 5561 5557 5554 5550 5546 5542 5538 5536 5533 5530 5528 5525 5524 5523 5520 5517 5515 5511 5508 5503 5499 5497